When you browse on this site, cookies collect data to enhance your experience and personalize the content and advertising you see.
Visit our Privacy Policy to learn more. By continuing to use the site, you agree to this use of cookies and data.
  • en Suisse
  • Liste des pays
  • À 7 jours
  • Température de l'eau
  • Carte météo
  • Widgets météo
  • user-avatar
    Se connecter

    Météo par heure à Helsinki

    Ce jour, 30 Mai, Samedi

    Heure Température Précipitation Vent Pression Humidité
    00:00 +9°C° 0 mm 3 m/s 767 mmHg 76%
    01:00 +9°C° 0 mm 3 m/s 767 mmHg 78%
    02:00 +7°C° 0 mm 4 m/s 767 mmHg 80%
    03:00 +8°C° 0 mm 4 m/s 767 mmHg 78%
    04:00 +8°C° 0 mm 4 m/s 767 mmHg 76%
    05:00 +8°C° 0 mm 4 m/s 767 mmHg 74%
    06:00 +11°C° 0 mm 4 m/s 768 mmHg 68%
    07:00 +13°C° 0 mm 4 m/s 768 mmHg 62%
    08:00 +14°C° 0 mm 4 m/s 768 mmHg 55%
    09:00 +16°C° 0 mm 3 m/s 768 mmHg 52%
    10:00 +17°C° 0 mm 3 m/s 768 mmHg 48%
    11:00 +18°C° 0 mm 3 m/s 768 mmHg 45%
    12:00 +19°C° 0 mm 3 m/s 768 mmHg 44%
    13:00 +19°C° 0 mm 3 m/s 768 mmHg 42%
    14:00 +20°C° 0 mm 2 m/s 768 mmHg 41%
    15:00 +20°C° 0 mm 3 m/s 768 mmHg 42%
    16:00 +19°C° 0 mm 3 m/s 767 mmHg 42%
    17:00 +19°C° 0 mm 3 m/s 767 mmHg 43%
    18:00 +18°C° 0 mm 3 m/s 767 mmHg 46%
    19:00 +18°C° 0 mm 3 m/s 767 mmHg 50%
    20:00 +17°C° 0 mm 4 m/s 767 mmHg 53%
    21:00 +14°C° 0 mm 4 m/s 767 mmHg 56%
    22:00 +13°C° 0 mm 4 m/s 768 mmHg 60%
    23:00 +12°C° 0 mm 5 m/s 768 mmHg 63%

    Demain, 31 Mai, Dimanche

    Heure Température Précipitation Vent Pression Humidité
    00:00 +10°C° 0 mm 5 m/s 768 mmHg 64%
    01:00 +10°C° 0 mm 5 m/s 768 mmHg 65%
    02:00 +9°C° 0 mm 6 m/s 769 mmHg 66%
    03:00 +9°C° 0 mm 6 m/s 769 mmHg 65%
    04:00 +9°C° 0 mm 6 m/s 769 mmHg 65%
    05:00 +9°C° 0 mm 6 m/s 769 mmHg 65%
    06:00 +10°C° 0 mm 6 m/s 769 mmHg 60%
    07:00 +11°C° 0 mm 6 m/s 769 mmHg 55%
    08:00 +13°C° 0 mm 6 m/s 770 mmHg 50%
    09:00 +14°C° 0 mm 5 m/s 770 mmHg 47%
    10:00 +15°C° 0 mm 5 m/s 770 mmHg 45%
    11:00 +17°C° 0 mm 4 m/s 770 mmHg 42%
    12:00 +17°C° 0 mm 4 m/s 770 mmHg 41%
    13:00 +18°C° 0 mm 4 m/s 769 mmHg 40%
    14:00 +18°C° 0 mm 3 m/s 769 mmHg 38%
    15:00 +18°C° 0 mm 3 m/s 769 mmHg 39%
    16:00 +18°C° 0 mm 3 m/s 769 mmHg 41%
    17:00 +18°C° 0 mm 3 m/s 769 mmHg 42%
    18:00 +17°C° 0 mm 2 m/s 769 mmHg 46%
    19:00 +17°C° 0 mm 2 m/s 769 mmHg 51%
    20:00 +16°C° 0 mm 2 m/s 769 mmHg 55%
    21:00 +15°C° 0 mm 2 m/s 769 mmHg 59%
    22:00 +14°C° 0 mm 2 m/s 769 mmHg 63%
    23:00 +12°C° 0 mm 3 m/s 769 mmHg 67%

    Après-demain, 1 Juin, Lundi

    Heure Température Précipitation Vent Pression Humidité
    00:00 +11°C° 0 mm 3 m/s 769 mmHg 70%
    01:00 +11°C° 0 mm 3 m/s 769 mmHg 73%
    02:00 +10°C° 0 mm 3 m/s 769 mmHg 76%
    03:00 +11°C° 0 mm 3 m/s 769 mmHg 74%
    04:00 +11°C° 0 mm 3 m/s 769 mmHg 72%
    05:00 +11°C° 0 mm 3 m/s 768 mmHg 70%
    06:00 +12°C° 0 mm 3 m/s 768 mmHg 68%
    07:00 +13°C° 0 mm 3 m/s 768 mmHg 67%
    08:00 +14°C° 0 mm 3 m/s 768 mmHg 65%
    09:00 +16°C° 0 mm 3 m/s 768 mmHg 61%
    10:00 +18°C° 0 mm 3 m/s 768 mmHg 56%
    11:00 +19°C° 0 mm 3 m/s 768 mmHg 51%
    12:00 +19°C° 0 mm 3 m/s 767 mmHg 54%
    13:00 +18°C° 0 mm 3 m/s 767 mmHg 57%
    14:00 +17°C° 0 mm 3 m/s 767 mmHg 60%
    15:00 +17°C° 0 mm 2 m/s 767 mmHg 60%
    16:00 +17°C° 0 mm 2 m/s 766 mmHg 61%
    17:00 +17°C° 0 mm 2 m/s 766 mmHg 61%
    18:00 +16°C° 0 mm 1 m/s 766 mmHg 65%
    19:00 +16°C° 0 mm 1 m/s 766 mmHg 69%
    20:00 +15°C° 0 mm 1 m/s 766 mmHg 72%
    21:00 +14°C° 0 mm 1 m/s 766 mmHg 75%
    22:00 +13°C° 0 mm 1 m/s 766 mmHg 78%
    23:00 +12°C° 0 mm 1 m/s 766 mmHg 81%

    2 Juin, Mardi

    Heure Température Précipitation Vent Pression Humidité
    00:00 +12°C° 0 mm 1 m/s 766 mmHg 81%
    01:00 +12°C° 0 mm 1 m/s 766 mmHg 82%
    02:00 +12°C° 0 mm 1 m/s 765 mmHg 83%
    03:00 +12°C° 0 mm 1 m/s 765 mmHg 82%
    04:00 +12°C° 0 mm 1 m/s 765 mmHg 80%
    05:00 +13°C° 0 mm 1 m/s 765 mmHg 79%
    06:00 +15°C° 0 mm 1 m/s 765 mmHg 73%
    07:00 +16°C° 0 mm 1 m/s 765 mmHg 67%
    08:00 +17°C° 0 mm 0 m/s 765 mmHg 61%
    09:00 +20°C° 0 mm 1 m/s 765 mmHg 59%
    10:00 +20°C° 0 mm 1 m/s 765 mmHg 57%
    11:00 +20°C° 0 mm 2 m/s 764 mmHg 55%
    12:00 +19°C° 0 mm 2 m/s 764 mmHg 56%
    13:00 +19°C° 0 mm 2 m/s 764 mmHg 57%
    14:00 +18°C° 0 mm 2 m/s 763 mmHg 58%
    15:00 +18°C° 0.1 mm 2 m/s 763 mmHg 58%
    16:00 +18°C° 0.1 mm 2 m/s 763 mmHg 58%
    17:00 +18°C° 0.1 mm 2 m/s 762 mmHg 58%
    18:00 +17°C° 0 mm 2 m/s 762 mmHg 62%
    19:00 +16°C° 0 mm 1 m/s 762 mmHg 66%
    20:00 +15°C° 0 mm 1 m/s 762 mmHg 70%
    21:00 +14°C° 0 mm 1 m/s 762 mmHg 72%
    22:00 +13°C° 0 mm 1 m/s 762 mmHg 74%
    23:00 +12°C° 0 mm 1 m/s 762 mmHg 76%

    3 Juin, Mercredi

    Heure Température Précipitation Vent Pression Humidité
    00:00 +12°C° 0 mm 1 m/s 761 mmHg 76%
    01:00 +12°C° 0 mm 1 m/s 761 mmHg 76%
    02:00 +11°C° 0 mm 1 m/s 761 mmHg 76%
    03:00 +12°C° 0 mm 1 m/s 761 mmHg 75%
    04:00 +12°C° 0 mm 1 m/s 761 mmHg 74%
    05:00 +12°C° 0 mm 1 m/s 761 mmHg 73%
    06:00 +13°C° 0 mm 1 m/s 761 mmHg 71%
    07:00 +14°C° 0 mm 2 m/s 761 mmHg 69%
    08:00 +15°C° 0 mm 2 m/s 760 mmHg 67%
    09:00 +15°C° 0 mm 2 m/s 760 mmHg 66%
    10:00 +16°C° 0 mm 2 m/s 760 mmHg 65%
    11:00 +16°C° 0 mm 2 m/s 760 mmHg 64%
    12:00 +16°C° 0 mm 2 m/s 760 mmHg 64%
    13:00 +16°C° 0 mm 3 m/s 759 mmHg 65%
    14:00 +16°C° 0 mm 3 m/s 759 mmHg 66%
    15:00 +16°C° 0 mm 3 m/s 759 mmHg 65%
    16:00 +17°C° 0 mm 3 m/s 758 mmHg 63%
    17:00 +17°C° 0 mm 3 m/s 758 mmHg 62%
    18:00 +16°C° 0 mm 3 m/s 758 mmHg 62%
    19:00 +14°C° 0 mm 3 m/s 758 mmHg 63%
    20:00 +14°C° 0 mm 3 m/s 757 mmHg 63%
    21:00 +12°C° 0 mm 3 m/s 758 mmHg 65%
    22:00 +12°C° 0 mm 2 m/s 758 mmHg 68%
    23:00 +10°C° 0 mm 2 m/s 758 mmHg 70%

    4 Juin, Jeudi

    Heure Température Précipitation Vent Pression Humidité
    00:00 +10°C° 0 mm 2 m/s 758 mmHg 71%
    01:00 +9°C° 0 mm 3 m/s 758 mmHg 71%
    02:00 +9°C° 0 mm 3 m/s 757 mmHg 72%
    03:00 +10°C° 0 mm 3 m/s 757 mmHg 73%
    04:00 +10°C° 0 mm 3 m/s 757 mmHg 73%
    05:00 +10°C° 0 mm 3 m/s 757 mmHg 74%
    06:00 +12°C° 0 mm 3 m/s 757 mmHg 69%
    07:00 +14°C° 0 mm 4 m/s 757 mmHg 63%
    08:00 +15°C° 0 mm 4 m/s 757 mmHg 58%
    09:00 +17°C° 0 mm 4 m/s 756 mmHg 54%
    10:00 +17°C° 0 mm 5 m/s 756 mmHg 50%
    11:00 +19°C° 0 mm 5 m/s 756 mmHg 45%
    12:00 +19°C° 0 mm 5 m/s 756 mmHg 45%
    13:00 +19°C° 0 mm 5 m/s 756 mmHg 44%
    14:00 +20°C° 0 mm 5 m/s 755 mmHg 43%
    15:00 +20°C° 0 mm 5 m/s 755 mmHg 45%
    16:00 +19°C° 0 mm 5 m/s 755 mmHg 46%
    17:00 +19°C° 0 mm 5 m/s 755 mmHg 48%
    18:00 +19°C° 0 mm 5 m/s 755 mmHg 52%
    19:00 +18°C° 0 mm 4 m/s 755 mmHg 56%
    20:00 +17°C° 0 mm 4 m/s 755 mmHg 59%
    21:00 +15°C° 0.1 mm 4 m/s 754 mmHg 64%
    22:00 +14°C° 0.1 mm 4 m/s 754 mmHg 70%
    23:00 +13°C° 0.1 mm 4 m/s 754 mmHg 75%
    Voir plus